Regional Weather Roundup
Issued by NWS Northern Indiana

Home | Current Version | Previous Version | Graphics & Text | Print | Product List | Glossary On
Versions: 1 2 3 4 5 6 7 8 9 10 11 12 13 14 15 16 17 18 19 20 21 22 23 24 25 26 27 28 29 30 31 32 33 34 35 36 37 38 39 40 41 42 43 44 45 46 47 48 49 50
000
ASUS43 KIWX 201310
RWRIWX

KIWX WEATHER ROUNDUP
NATIONAL WEATHER SERVICE NORTHERN INDIANA
900 AM EDT WED SEP 20 2017

NOTE: "FAIR" INDICATES FEW OR NO CLOUDS BELOW 12,000 FEET WITH NO
SIGNIFICANT WEATHER AND/OR OBSTRUCTIONS TO VISIBILITY.

* THESE STATIONS ARE NOT UNDER NWS QUALITY CONTROL. THEY ALSO MAY NOT
  REPORT WEATHER SUCH AS PRECIPITATION OR FOG.

INZ001>027-201400-
NORTHERN INDIANA

CITY           SKY/WX    TMP DP  RH WIND       PRES   REMARKS
GARY*          SUNNY     68  66  94 SE8       29.95R
VALPARAISO     MOSUNNY   65  65 100 SE3       29.98R FOG
MICHIGAN CITY* SUNNY     64  64 100 SE3       29.97S
LAPORTE*       CLOUDY    62  62  99 CALM      29.99R FOG
KNOX*          SUNNY     64  64 100 SE5       29.97S
SOUTH BEND     FOG       64  64 100 E8        29.99R VSB 1/2
ELKHART*       FOG       64  64 100 SE5       30.00R VSB<1/4
GOSHEN         FOG       64  62  93 SE3       30.00R VSB 1/4
MONTICELLO*    SUNNY     66  64  96 SE5       29.97S FOG
LOGANSPORT*    SUNNY     64  64 100 S3        30.00R FOG
ROCHESTER*       N/A     68 N/A N/A CALM      30.00  FOG
WARSAW*        FOG       63  63 100 CALM      30.00S VSB<1/4
AUBURN*        FOG       64  63  94 CALM      30.03R VSB<1/4
FORT WAYNE     PTSUNNY   66  64  93 CALM      30.02R FOG
HUNTINGTON*    SUNNY     66  65  96 CALM      30.01R FOG
PERU/GRISSOM   SUNNY     67  67 100 S5        29.99R FOG

$$
INZ028>050-201400-
CENTRAL INDIANA

CITY           SKY/WX    TMP DP  RH WIND       PRES   REMARKS
LAFAYETTE      SUNNY     67  67 100 CALM      29.97R FOG
KOKOMO*        CLOUDY    66  66 100 S6        30.01R FOG
MUNCIE*        SUNNY     70  66  87 S5        30.02R FOG
INDIANAPOLIS   FOG       67  66  97 SE7       30.00R VSB 1/8

$$
MIZ043>046-050>051-056>058-064>065-071>073-077>080-201400-
SOUTHWEST LOWER MICHIGAN

CITY           SKY/WX    TMP DP  RH WIND       PRES   REMARKS
BATTLE CREEK   MOSUNNY   69  66  90 S7        30.01S
BENTON HARBOR  FOG       65  63  93 E6        29.97S VSB 1/4
COLDWATER*     CLOUDY    67  67 100 S3        30.01S FOG
HILLSDALE*     CLOUDY    66  63  88 CALM      30.03R FOG
HOLLAND        PTSUNNY   68  65  90 S8        29.98S FOG
GRAND RAPIDS   CLOUDY    68  66  93 S3        29.99R
KALAMAZOO      CLOUDY    68  63  84 S3        29.99F
STURGIS*       FOG       65  65 100 E5        30.00S VSB 1/4
THREE RIVERS*  CLOUDY    67  66  98 CALM      30.01S FOG

$$
OHZ001>008-015>018-024>025-201400-
NORTHWEST OHIO

CITY           SKY/WX    TMP DP  RH WIND       PRES   REMARKS
WAUSEON*       FOG       66  66 100 CALM      30.02S VSB<1/4
DEFIANCE       FOG       65  64  97 CALM      30.02R VSB<1/4
FINDLAY        MOSUNNY   68  65  90 CALM      30.02S
TOLEDO EXPRESS FOG       65  32  29 W6        30.02R VSB 1/4
TOLEDO METCALF CLOUDY    67  65  93 CALM      30.02F FOG
LIMA           MOSUNNY   67  67 100 S6        30.03S

$$
AND FOR LAKE MICHIGAN COASTAL AND OPEN LAKE BUOY OBSERVATIONS

STATION/POSITION TEMP    WIND        PRES    VSBY  WAVE
                 AIR SEA DIR/SP/G                  HT/PER
                 (F)     (DEG/KT/KT) (MB)    (MI)  (FT/S)
CALUMET HARBOR    69     140/  6/  8 1013.2S
MICHIGAN CITY     65     130/  9/ 10   N/A
BURNS HARBOR      69     170/  7/ 11 1014.6S
SAINT JOSEPH      64     110/  2/  4 1015.6
SOUTH LAKE BUOY   68 68  110/ 12/ 12 1013.9S         1
4 MI NW BRIDGMAN  65 69  150/  8/ 10 1014.7          1
MICHIGAN CITY     67 68  150/  8/ 10   N/A           1

$$
&&




USA.gov is the U.S. government's official web portal to all federal, state and local government web resources and services.